Time,TemperatureF,DewpointF,PressureIn,WindDirection,WindDirectionDegrees,WindSpeedMPH,WindSpeedGustMPH,Humidity,HourlyPrecipIn,Conditions,Clouds,dailyrainin,SoftwareType,DateUTC
2013-05-03 00:03:00,59.0,59.0,-100.00,ENE,65,5.0,11.0,99,-99.99,,,-99.99,,2013-05-03 04:03:00,
2013-05-03 00:13:00,59.0,59.0,-100.00,East,85,3.0,17.0,99,-99.99,,,-99.99,,2013-05-03 04:13:00,
2013-05-03 00:23:00,59.0,59.0,-100.00,East,80,2.0,11.0,99,-99.99,,,-99.99,,2013-05-03 04:23:00,
2013-05-03 00:32:00,59.0,58.0,-100.00,East,85,5.0,11.0,99,-99.99,,,-99.99,,2013-05-03 04:32:00,
2013-05-03 00:43:00,59.0,58.0,-100.00,East,80,4.0,10.0,99,-99.99,,,-99.99,,2013-05-03 04:43:00,
2013-05-03 00:53:00,58.0,58.0,-100.00,East,85,4.0,11.0,99,-99.99,,,-99.99,,2013-05-03 04:53:00,
2013-05-03 01:03:00,58.0,58.0,-100.00,East,80,4.0,10.0,99,-99.99,,,-99.99,,2013-05-03 05:03:00,
2013-05-03 01:12:00,58.0,58.0,-100.00,ENE,75,2.0,13.0,99,-99.99,,,-99.99,,2013-05-03 05:12:00,
2013-05-03 01:22:00,58.0,58.0,-100.00,East,85,6.0,14.0,99,-99.99,,,-99.99,,2013-05-03 05:22:00,
2013-05-03 01:32:00,58.0,58.0,-100.00,ENE,75,4.0,14.0,99,-99.99,,,-99.99,,2013-05-03 05:32:00,
2013-05-03 01:42:00,58.0,58.0,-100.00,East,80,5.0,11.0,99,-99.99,,,-99.99,,2013-05-03 05:42:00,
2013-05-03 01:52:00,58.0,58.0,-100.00,East,80,6.0,11.0,99,-99.99,,,-99.99,,2013-05-03 05:52:00,
2013-05-03 02:02:00,58.0,58.0,-100.00,ENE,75,4.0,13.0,99,-99.99,,,-99.99,,2013-05-03 06:02:00,
2013-05-03 02:12:00,58.0,57.0,-100.00,East,90,4.0,13.0,99,-99.99,,,-99.99,,2013-05-03 06:12:00,
2013-05-03 02:21:00,58.0,57.0,-100.00,East,85,5.0,10.0,99,-99.99,,,-99.99,,2013-05-03 06:21:00,
2013-05-03 02:32:00,58.0,57.0,-100.00,East,80,2.0,14.0,99,-99.99,,,-99.99,,2013-05-03 06:32:00,
2013-05-03 02:42:00,58.0,57.0,-100.00,ENE,70,4.0,14.0,99,-99.99,,,-99.99,,2013-05-03 06:42:00,
2013-05-03 02:52:00,58.0,57.0,-100.00,East,80,2.0,13.0,99,-99.99,,,-99.99,,2013-05-03 06:52:00,
2013-05-03 03:02:00,58.0,57.0,-100.00,ENE,75,4.0,11.0,99,-99.99,,,-99.99,,2013-05-03 07:02:00,
2013-05-03 03:11:00,58.0,57.0,-100.00,South,170,2.0,11.0,99,-99.99,,,-99.99,,2013-05-03 07:11:00,
2013-05-03 03:22:00,58.0,57.0,-100.00,ESE,120,2.0,10.0,99,-99.99,,,-99.99,,2013-05-03 07:22:00,
2013-05-03 03:32:00,57.0,57.0,-100.00,ENE,70,3.0,14.0,99,-99.99,,,-99.99,,2013-05-03 07:32:00,
2013-05-03 03:42:00,57.0,57.0,-100.00,East,90,5.0,11.0,99,-99.99,,,-99.99,,2013-05-03 07:42:00,
2013-05-03 03:52:00,57.0,57.0,-100.00,East,95,4.0,10.0,99,-99.99,,,-99.99,,2013-05-03 07:52:00,
2013-05-03 04:02:00,57.0,57.0,-100.00,East,95,4.0,10.0,99,-99.99,,,-99.99,,2013-05-03 08:02:00,
2013-05-03 04:12:00,57.0,57.0,-100.00,ENE,75,3.0,11.0,99,-99.99,,,-99.99,,2013-05-03 08:12:00,
2013-05-03 04:21:00,57.0,57.0,-100.00,SE,140,3.0,8.0,99,-99.99,,,-99.99,,2013-05-03 08:21:00,
2013-05-03 04:32:00,57.0,57.0,-100.00,East,95,4.0,9.0,99,-99.99,,,-99.99,,2013-05-03 08:32:00,
2013-05-03 04:42:00,57.0,56.0,-100.00,East,100,2.0,13.0,99,-99.99,,,-99.99,,2013-05-03 08:42:00,
2013-05-03 04:52:00,57.0,56.0,-100.00,West,280,0.0,11.0,99,-99.99,,,-99.99,,2013-05-03 08:52:00,
2013-05-03 05:01:00,57.0,56.0,-100.00,East,100,4.0,9.0,99,-99.99,,,-99.99,,2013-05-03 09:01:00,
2013-05-03 05:12:00,56.0,56.0,-100.00,East,100,4.0,10.0,99,-99.99,,,-99.99,,2013-05-03 09:12:00,
2013-05-03 05:21:00,56.0,56.0,-100.00,ENE,75,3.0,11.0,99,-99.99,,,-99.99,,2013-05-03 09:21:00,
2013-05-03 05:33:00,56.0,56.0,-100.00,ENE,70,6.0,13.0,99,-99.99,,,-99.99,,2013-05-03 09:33:00,
2013-05-03 05:42:00,56.0,56.0,-100.00,East,90,4.0,16.0,99,-99.99,,,-99.99,,2013-05-03 09:42:00,
2013-05-03 05:52:00,56.0,56.0,-100.00,East,95,5.0,11.0,99,-99.99,,,-99.99,,2013-05-03 09:52:00,
2013-05-03 06:03:00,56.0,56.0,-100.00,East,85,4.0,10.0,99,-99.99,,,-99.99,,2013-05-03 10:03:00,
2013-05-03 06:13:00,56.0,56.0,-100.00,East,85,4.0,8.0,99,-99.99,,,-99.99,,2013-05-03 10:13:00,
2013-05-03 06:22:00,56.0,56.0,-100.00,ESE,110,1.0,12.0,99,-99.99,,,-99.99,,2013-05-03 10:22:00,
2013-05-03 06:32:00,56.0,56.0,-100.00,North,0,4.0,11.0,99,-99.99,,,-99.99,,2013-05-03 10:32:00,
2013-05-03 06:42:00,56.0,56.0,-100.00,East,80,6.0,13.0,99,-99.99,,,-99.99,,2013-05-03 10:42:00,
2013-05-03 06:52:00,56.0,56.0,-100.00,East,85,6.0,16.0,99,-99.99,,,-99.99,,2013-05-03 10:52:00,
2013-05-03 07:02:00,56.0,56.0,-100.00,East,80,5.0,14.0,99,-99.99,,,-99.99,,2013-05-03 11:02:00,
2013-05-03 07:11:00,56.0,56.0,-100.00,ENE,65,4.0,14.0,99,-99.99,,,-99.99,,2013-05-03 11:11:00,
2013-05-03 07:22:00,56.0,56.0,-100.00,East,100,3.0,11.0,99,-99.99,,,-99.99,,2013-05-03 11:22:00,
2013-05-03 07:32:00,56.0,56.0,-100.00,ENE,70,4.0,15.0,99,-99.99,,,-99.99,,2013-05-03 11:32:00,
2013-05-03 07:42:00,56.0,56.0,-100.00,East,100,4.0,14.0,99,-99.99,,,-99.99,,2013-05-03 11:42:00,
2013-05-03 07:52:00,56.0,56.0,-100.00,East,80,4.0,13.0,99,-99.99,,,-99.99,,2013-05-03 11:52:00,
2013-05-03 08:02:00,56.0,56.0,-100.00,East,85,4.0,11.0,99,-99.99,,,-99.99,,2013-05-03 12:02:00,
2013-05-03 08:12:00,56.0,56.0,-100.00,ENE,75,4.0,16.0,99,-99.99,,,-99.99,,2013-05-03 12:12:00,
2013-05-03 08:22:00,56.0,56.0,-100.00,East,90,6.0,18.0,99,-99.99,,,-99.99,,2013-05-03 12:22:00,
2013-05-03 08:32:00,56.0,56.0,-100.00,East,90,6.0,18.0,99,-99.99,,,-99.99,,2013-05-03 12:32:00,
2013-05-03 08:42:00,57.0,57.0,-100.00,East,85,4.0,16.0,99,-99.99,,,-99.99,,2013-05-03 12:42:00,
2013-05-03 08:52:00,57.0,57.0,-100.00,ENE,75,7.0,16.0,99,-99.99,,,-99.99,,2013-05-03 12:52:00,
2013-05-03 09:01:00,58.0,58.0,-100.00,East,100,4.0,19.0,99,-99.99,,,-99.99,,2013-05-03 13:01:00,
2013-05-03 09:11:00,58.0,58.0,-100.00,ENE,70,5.0,17.0,98,-99.99,,,-99.99,,2013-05-03 13:11:00,
2013-05-03 09:22:00,59.0,57.0,-100.00,NE,55,4.0,13.0,94,-99.99,,,-99.99,,2013-05-03 13:22:00,
2013-05-03 09:32:00,59.0,56.0,-100.00,East,85,2.0,14.0,90,-99.99,,,-99.99,,2013-05-03 13:32:00,
2013-05-03 09:42:00,60.0,56.0,-100.00,ESE,105,7.0,16.0,86,-99.99,,,-99.99,,2013-05-03 13:42:00,
2013-05-03 09:52:00,60.0,55.0,-100.00,ENE,75,5.0,13.0,84,-99.99,,,-99.99,,2013-05-03 13:52:00,
2013-05-03 10:02:00,61.0,55.0,-100.00,ENE,65,5.0,16.0,81,-99.99,,,-99.99,,2013-05-03 14:02:00,
2013-05-03 10:11:00,61.0,54.0,-100.00,East,100,6.0,16.0,79,-99.99,,,-99.99,,2013-05-03 14:11:00,
2013-05-03 10:22:00,61.0,54.0,-100.00,East,100,6.0,16.0,79,-99.99,,,-99.99,,2013-05-03 14:22:00,
2013-05-03 10:32:00,63.0,54.0,-100.00,ENE,70,4.0,21.0,73,-99.99,,,-99.99,,2013-05-03 14:32:00,
2013-05-03 10:42:00,64.0,54.0,-100.00,East,100,3.0,16.0,71,-99.99,,,-99.99,,2013-05-03 14:42:00,
2013-05-03 10:52:00,63.0,53.0,-100.00,ENE,75,9.0,17.0,68,-99.99,,,-99.99,,2013-05-03 14:52:00,
2013-05-03 11:01:00,63.0,52.0,-100.00,East,90,6.0,18.0,69,-99.99,,,-99.99,,2013-05-03 15:01:00,
2013-05-03 11:11:00,63.0,53.0,-100.00,ENE,70,4.0,14.0,69,-99.99,,,-99.99,,2013-05-03 15:11:00,
2013-05-03 11:22:00,62.0,52.0,-100.00,East,85,8.0,19.0,69,-99.99,,,-99.99,,2013-05-03 15:22:00,
2013-05-03 11:32:00,62.0,52.0,-100.00,ENE,60,9.0,18.0,70,-99.99,,,-99.99,,2013-05-03 15:32:00,
2013-05-03 11:43:00,62.0,53.0,-100.00,ENE,75,5.0,14.0,71,-99.99,,,-99.99,,2013-05-03 15:43:00,
2013-05-03 11:53:00,63.0,53.0,-100.00,ESE,105,6.0,20.0,70,-99.99,,,-99.99,,2013-05-03 15:53:00,
2013-05-03 12:03:00,63.0,53.0,-100.00,ENE,75,7.0,17.0,70,-99.99,,,-99.99,,2013-05-03 16:03:00,
2013-05-03 12:13:00,63.0,53.0,-100.00,East,80,6.0,16.0,70,-99.99,,,-99.99,,2013-05-03 16:13:00,
2013-05-03 12:23:00,65.0,53.0,-100.00,East,85,9.0,18.0,67,-99.99,,,-99.99,,2013-05-03 16:23:00,
2013-05-03 12:33:00,64.0,53.0,-100.00,East,80,8.0,16.0,67,-99.99,,,-99.99,,2013-05-03 16:33:00,
2013-05-03 12:42:00,63.0,53.0,-100.00,East,90,5.0,14.0,68,-99.99,,,-99.99,,2013-05-03 16:42:00,
2013-05-03 12:52:00,62.0,52.0,-100.00,ESE,110,4.0,14.0,69,-99.99,,,-99.99,,2013-05-03 16:52:00,
2013-05-03 13:02:00,62.0,54.0,-100.00,ENE,65,4.0,13.0,76,-99.99,,,-99.99,,2013-05-03 17:02:00,
2013-05-03 13:12:00,60.0,54.0,-100.00,ENE,75,4.0,21.0,81,-99.99,,,-99.99,,2013-05-03 17:12:00,
2013-05-03 13:23:00,60.0,56.0,-100.00,East,100,3.0,11.0,88,-99.99,,,-99.99,,2013-05-03 17:23:00,
2013-05-03 13:32:00,60.0,57.0,-100.00,ENE,75,4.0,19.0,91,-99.99,,,-99.99,,2013-05-03 17:32:00,
2013-05-03 13:42:00,60.0,58.0,-100.00,East,90,4.0,15.0,93,-99.99,,,-99.99,,2013-05-03 17:42:00,
2013-05-03 13:52:00,60.0,58.0,-100.00,East,90,4.0,15.0,93,-99.99,,,-99.99,,2013-05-03 17:52:00,
2013-05-03 14:01:00,59.0,58.0,-100.00,ESE,105,4.0,15.0,97,-99.99,,,-99.99,,2013-05-03 18:01:00,
2013-05-03 14:12:00,59.0,58.0,-100.00,East,85,4.0,14.0,99,-99.99,,,-99.99,,2013-05-03 18:12:00,
2013-05-03 14:22:00,58.0,58.0,-100.00,East,80,5.0,19.0,99,-99.99,,,-99.99,,2013-05-03 18:22:00,
2013-05-03 14:32:00,58.0,58.0,-100.00,ESE,115,2.0,13.0,99,-99.99,,,-99.99,,2013-05-03 18:32:00,
2013-05-03 14:42:00,58.0,57.0,-100.00,East,90,6.0,16.0,99,-99.99,,,-99.99,,2013-05-03 18:42:00,
2013-05-03 14:52:00,58.0,57.0,-100.00,East,85,2.0,11.0,99,-99.99,,,-99.99,,2013-05-03 18:52:00,
2013-05-03 15:01:00,58.0,58.0,-100.00,East,80,4.0,10.0,99,-99.99,,,-99.99,,2013-05-03 19:01:00,
2013-05-03 15:11:00,59.0,58.0,-100.00,ENE,75,2.0,11.0,99,-99.99,,,-99.99,,2013-05-03 19:11:00,
2013-05-03 15:21:00,60.0,60.0,-100.00,East,80,4.0,11.0,99,-99.99,,,-99.99,,2013-05-03 19:21:00,
2013-05-03 15:32:00,62.0,62.0,-100.00,ENE,65,4.0,14.0,99,-99.99,,,-99.99,,2013-05-03 19:32:00,
2013-05-03 15:42:00,62.0,60.0,-100.00,East,90,6.0,14.0,91,-99.99,,,-99.99,,2013-05-03 19:42:00,
2013-05-03 15:52:00,62.0,59.0,-100.00,ESE,105,4.0,12.0,90,-99.99,,,-99.99,,2013-05-03 19:52:00,
2013-05-03 16:02:00,64.0,60.0,-100.00,East,100,4.0,14.0,86,-99.99,,,-99.99,,2013-05-03 20:02:00,
2013-05-03 16:12:00,64.0,59.0,-100.00,East,100,3.0,11.0,83,-99.99,,,-99.99,,2013-05-03 20:12:00,
2013-05-03 16:21:00,66.0,59.0,-100.00,ENE,75,4.0,13.0,79,-99.99,,,-99.99,,2013-05-03 20:21:00,
2013-05-03 16:32:00,65.0,58.0,-100.00,NNE,30,4.0,16.0,77,-99.99,,,-99.99,,2013-05-03 20:32:00,
2013-05-03 16:42:00,65.0,57.0,-100.00,NE,55,5.0,15.0,76,-99.99,,,-99.99,,2013-05-03 20:42:00,
2013-05-03 16:52:00,65.0,57.0,-100.00,East,80,6.0,11.0,75,-99.99,,,-99.99,,2013-05-03 20:52:00,
2013-05-03 17:02:00,65.0,57.0,-100.00,ENE,75,2.0,10.0,75,-99.99,,,-99.99,,2013-05-03 21:02:00,
2013-05-03 17:11:00,65.0,56.0,-100.00,ENE,70,5.0,14.0,74,-99.99,,,-99.99,,2013-05-03 21:11:00,
2013-05-03 17:22:00,64.0,56.0,-100.00,East,90,5.0,14.0,74,-99.99,,,-99.99,,2013-05-03 21:22:00,
2013-05-03 17:33:00,64.0,56.0,-100.00,ENE,65,1.0,11.0,74,-99.99,,,-99.99,,2013-05-03 21:33:00,
2013-05-03 17:42:00,65.0,56.0,-100.00,ENE,65,4.0,10.0,74,-99.99,,,-99.99,,2013-05-03 21:42:00,
2013-05-03 17:52:00,65.0,56.0,-100.00,East,90,4.0,11.0,73,-99.99,,,-99.99,,2013-05-03 21:52:00,
2013-05-03 18:03:00,65.0,55.0,-100.00,ESE,105,6.0,11.0,72,-99.99,,,-99.99,,2013-05-03 22:03:00,
2013-05-03 18:10:00,63.0,55.0,-100.00,East,90,2.0,14.0,76,-99.99,,,-99.99,,2013-05-03 22:10:00,
2013-05-03 18:13:00,64.0,55.0,-100.00,East,90,2.0,14.0,72,-99.99,,,-99.99,,2013-05-03 22:13:00,
2013-05-03 18:22:00,64.0,55.0,-100.00,SSE,160,4.0,11.0,73,-99.99,,,-99.99,,2013-05-03 22:22:00,
2013-05-03 18:32:00,64.0,55.0,-100.00,SSE,160,4.0,11.0,73,-99.99,,,-99.99,,2013-05-03 22:32:00,
2013-05-03 18:42:00,63.0,55.0,-100.00,East,90,2.0,14.0,76,-99.99,,,-99.99,,2013-05-03 22:42:00,
2013-05-03 18:52:00,63.0,55.0,-100.00,East,90,2.0,14.0,76,-99.99,,,-99.99,,2013-05-03 22:52:00,
2013-05-03 19:02:00,63.0,55.0,-100.00,East,90,2.0,14.0,76,-99.99,,,-99.99,,2013-05-03 23:02:00,
2013-05-03 19:52:00,59.0,59.0,-100.00,ENE,75,4.0,14.0,99,-99.99,,,-99.99,,2013-05-03 23:52:00,
2013-05-03 20:01:00,59.0,59.0,-100.00,ENE,75,4.0,14.0,99,-99.99,,,-99.99,,2013-05-04 00:01:00,
2013-05-03 20:11:00,59.0,58.0,-100.00,East,90,2.0,6.0,99,-99.99,,,-99.99,,2013-05-04 00:11:00,
2013-05-03 20:23:00,59.0,58.0,-100.00,South,190,1.0,8.0,99,-99.99,,,-99.99,,2013-05-04 00:23:00,
2013-05-03 20:32:00,59.0,58.0,-100.00,South,190,1.0,8.0,99,-99.99,,,-99.99,,2013-05-04 00:32:00,
2013-05-03 20:42:00,59.0,59.0,-100.00,ENE,75,3.0,9.0,99,-99.99,,,-99.99,,2013-05-04 00:42:00,
2013-05-03 20:52:00,59.0,58.0,-100.00,ESE,110,1.0,7.0,99,-99.99,,,-99.99,,2013-05-04 00:52:00,
2013-05-03 21:01:00,59.0,58.0,-100.00,ESE,115,1.0,6.0,99,-99.99,,,-99.99,,2013-05-04 01:01:00,
2013-05-03 21:11:00,59.0,58.0,-100.00,East,100,0.0,6.0,99,-99.99,,,-99.99,,2013-05-04 01:11:00,
2013-05-03 21:21:00,59.0,58.0,-100.00,ESE,105,1.0,7.0,99,-99.99,,,-99.99,,2013-05-04 01:21:00,
2013-05-03 21:32:00,59.0,58.0,-100.00,East,85,2.0,6.0,99,-99.99,,,-99.99,,2013-05-04 01:32:00,
2013-05-03 21:42:00,59.0,58.0,-100.00,East,100,1.0,4.0,99,-99.99,,,-99.99,,2013-05-04 01:42:00,
2013-05-03 21:52:00,59.0,59.0,-100.00,East,90,1.0,6.0,99,-99.99,,,-99.99,,2013-05-04 01:52:00,
2013-05-03 22:02:00,59.0,59.0,-100.00,South,185,1.0,11.0,99,-99.99,,,-99.99,,2013-05-04 02:02:00,
2013-05-03 22:11:00,59.0,59.0,-100.00,ENE,75,4.0,9.0,99,-99.99,,,-99.99,,2013-05-04 02:11:00,
2013-05-03 22:21:00,59.0,59.0,-100.00,East,95,4.0,7.0,99,-99.99,,,-99.99,,2013-05-04 02:21:00,
2013-05-03 22:32:00,59.0,59.0,-100.00,ENE,70,3.0,9.0,99,-99.99,,,-99.99,,2013-05-04 02:32:00,
2013-05-03 22:42:00,59.0,59.0,-100.00,East,80,2.0,9.0,99,-99.99,,,-99.99,,2013-05-04 02:42:00,
2013-05-03 22:52:00,59.0,59.0,-100.00,East,95,3.0,8.0,99,-99.99,,,-99.99,,2013-05-04 02:52:00,
2013-05-03 23:02:00,59.0,59.0,-100.00,East,80,4.0,10.0,99,-99.99,,,-99.99,,2013-05-04 03:02:00,
2013-05-03 23:11:00,59.0,59.0,-100.00,East,85,3.0,9.0,99,-99.99,,,-99.99,,2013-05-04 03:11:00,
2013-05-03 23:22:00,59.0,59.0,-100.00,East,80,4.0,9.0,99,-99.99,,,-99.99,,2013-05-04 03:22:00,
2013-05-03 23:33:00,59.0,59.0,-100.00,ESE,105,3.0,11.0,99,-99.99,,,-99.99,,2013-05-04 03:33:00,
2013-05-03 23:43:00,59.0,59.0,-100.00,East,90,2.0,9.0,99,-99.99,,,-99.99,,2013-05-04 03:43:00,
2013-05-03 23:52:00,59.0,59.0,-100.00,East,90,2.0,9.0,99,-99.99,,,-99.99,,2013-05-04 03:52:00,